STARLINK-11746 [DTC] (64372 NORAD) Tracking and Keplerian Element Data

This shows tracking and keplerian element data for the satellite.

Feedback or suggestion? Click here.




ElementValue
Catalog64372
NameSTARLINK-11746 [DTC]
Epoch Orbit3096
Epoch Day353.95294034
Epoch Year2025
RAAN205.0029
Inclination42.9981
Eccentricity0.0001527
Argument of Perigee283.994
Mean Anonmoly76.0758
Mean Motion15.70857274
Decay Rate0.00080288
L11 64372U 25127C 25353.95294034 .00080288 00000+0 62272-3 0 9990
L22 64372 42.9981 205.0029 0001527 283.9940 76.0758 15.70857274 30962



Live tracking and technical data element details for STARLINK-11746 [DTC] (NORAD 64372). STARLINK-11746 [DTC] can be tracked NOW for your location showing map with azimuth and elevation plus other details from your city location.







IsCatalogInMostPopularTable: catalog: 64372, numindb: 11
Update: records affected: 1



GetName: 64372 STARLINK-11746 [DTC]

Hit Count: updated at: Mon, 20 Apr 2026 10:35:22 GMT